H1 CPF 2 NER 2024 6 19 9 171 01 glonass143 H2 2007501 9143 46805 2024 6 19 0 0 0 2024 6 22 23 45 0 900 1 1 0 0 0 1 H9 10 0 60480 0.00000 0 -9154888.834 -6062432.681 -23008904.958 10 0 60480 900.00000 0 -7442089.843 -8324652.358 -22920945.904 10 0 60480 1800.00000 0 -5919429.896 -10673236.063 -22387248.034 10 0 60480 2700.00000 0 -4617268.755 -13045608.229 -21418274.137 10 0 60480 3600.00000 0 -3554153.552 -15375638.641 -20032948.890 10 0 60480 4500.00000 0 -2736242.560 -17596236.506 -18258284.396 10 0 60480 5400.00000 0 -2157261.989 -19641998.393 -16128848.838 10 0 60480 6300.00000 0 -1798995.898 -21451799.824 -13686088.787 10 0 60480 7200.00000 0 -1632286.967 -22971222.614 -10977518.583 10 0 60480 8100.00000 0 -1618504.364 -24154716.995 -8055792.766 10 0 60480 9000.00000 0 -1711415.420 -24967408.660 -4977679.755 10 0 60480 9900.00000 0 -1859380.906 -25386475.750 -1802957.028 10 0 60480 10800.00000 0 -2007780.215 -25402038.909 1406750.497 10 0 60480 11700.00000 0 -2101563.249 -25017527.915 4589166.136 10 0 60480 12600.00000 0 -2087820.659 -24249510.367 7682567.716 10 0 60480 13500.00000 0 -1918263.546 -23126990.388 10626981.090 10 0 60480 14400.00000 0 -1551507.702 -21690207.373 13365337.832 10 0 60480 15300.00000 0 -955065.946 -19988985.523 15844575.024 10 0 60480 16200.00000 0 -106964.404 -18080703.443 18016656.349 10 0 60480 17100.00000 0 1003085.520 -16027968.540 19839495.438 10 0 60480 18000.00000 0 2373009.225 -13896092.966 21277764.383 10 0 60480 18900.00000 0 3988214.226 -11750475.704 22303572.627 10 0 60480 19800.00000 0 5821966.261 -9653999.015 22897003.854 10 0 60480 20700.00000 0 7836281.806 -7664546.641 23046501.056 10 0 60480 21600.00000 0 9983301.360 -5832746.010 22749092.663 10 0 60480 22500.00000 0 12207087.989 -4200027.362 22010455.333 10 0 60480 23400.00000 0 14445777.943 -2797079.724 20844811.835 10 0 60480 24300.00000 0 16633995.429 -1642767.324 19274665.292 10 0 60480 25200.00000 0 18705432.409 -743551.102 17330373.990 10 0 60480 26100.00000 0 20595486.925 -93439.161 15049573.849 10 0 60480 27000.00000 0 22243850.583 325531.984 12476458.592 10 0 60480 27900.00000 0 23596937.357 542305.657 9660930.476 10 0 60480 28800.00000 0 24610051.908 595344.573 6657637.215 10 0 60480 29700.00000 0 25249206.075 530763.401 3524913.230 10 0 60480 30600.00000 0 25492506.540 400133.497 323645.584 10 0 60480 31500.00000 0 25331054.473 258053.150 -2883913.136 10 0 60480 32400.00000 0 24769318.402 159586.968 -6035361.384 10 0 60480 33300.00000 0 23824963.836 157683.882 -9069370.237 10 0 60480 34200.00000 0 22528146.191 300684.378 -11926885.215 10 0 60480 35100.00000 0 20920296.432 630023.924 -14552283.965 10 0 60480 36000.00000 0 19052450.425 1178231.252 -16894466.392 10 0 60480 36900.00000 0 16983192.355 1967307.576 -18907855.197 10 0 60480 37800.00000 0 14776298.864 3007556.557 -20553286.895 10 0 60480 38700.00000 0 12498183.078 4296915.585 -21798775.691 10 0 60480 39600.00000 0 10215245.928 5820817.560 -22620135.392 10 0 60480 40500.00000 0 7991245.765 7552589.863 -23001447.462 10 0 60480 41400.00000 0 5884796.178 9454374.428 -22935366.527 10 0 60480 42300.00000 0 3947096.179 11478530.876 -22423257.862 10 0 60480 43200.00000 0 2219986.880 13569464.299 -21475164.672 10 0 60480 44100.00000 0 734414.741 15665801.547 -20109606.260 10 0 60480 45000.00000 0 -490635.707 17702825.147 -18353211.413 10 0 60480 45900.00000 0 -1448696.652 19615063.297 -16240194.438 10 0 60480 46800.00000 0 -2145837.871 21338927.786 -13811684.279 10 0 60480 47700.00000 0 -2600154.638 22815289.678 -11114920.000 10 0 60480 48600.00000 0 -2840746.064 23991885.223 -8202328.480 10 0 60480 49500.00000 0 -2906228.564 24825451.575 -5130502.426 10 0 60480 50400.00000 0 -2842848.633 25283503.240 -1959098.892 10 0 60480 51300.00000 0 -2702275.856 25345675.293 1250320.110 10 0 60480 52200.00000 0 -2539170.314 25004577.596 4435482.141 10 0 60480 53100.00000 0 -2408627.901 24266124.785 7534610.643 10 0 60480 54000.00000 0 -2363611.933 23149328.751 10487619.570 10 0 60480 54900.00000 0 -2452479.760 21685562.763 13237273.359 10 0 60480 55800.00000 0 -2716708.875 19917328.346 15730289.990 10 0 60480 56700.00000 0 -3188918.441 17896576.602 17918366.367 10 0 60480 57600.00000 0 -3891269.634 15682653.874 19759106.818 10 0 60480 58500.00000 0 -4834312.298 13339957.075 21216837.554 10 0 60480 59400.00000 0 -6016326.800 10935395.656 22263292.158 10 0 60480 60300.00000 0 -7423189.412 8535764.911 22878155.615 10 0 60480 61200.00000 0 -9028767.920 6205138.795 23049456.944 10 0 60480 62100.00000 0 -10795832.229 4002389.452 22773803.157 10 0 60480 63000.00000 0 -12677443.514 1978935.359 22056450.044 10 0 60480 63900.00000 0 -14618765.558 176810.651 20911208.044 10 0 60480 64800.00000 0 -16559224.360 -1372864.990 19360184.401 10 0 60480 65700.00000 0 -18434927.378 -2650952.892 17433365.582 10 0 60480 66600.00000 0 -20181242.592 -3650854.420 15168047.007 10 0 60480 67500.00000 0 -21735430.440 -4378539.493 12608119.916 10 0 60480 68400.00000 0 -23039218.965 -4852043.646 9803228.135 10 0 60480 69300.00000 0 -24041214.183 -5100454.927 6807810.232 10 0 60480 70200.00000 0 -24699044.164 -5162433.503 3680045.056 10 0 60480 71100.00000 0 -24981145.954 -5084326.697 480720.923 10 0 60480 72000.00000 0 -24868119.185 -4917959.559 -2727949.381 10 0 60480 72900.00000 0 -24353588.291 -4718195.129 -5883544.248 10 0 60480 73800.00000 0 -23444535.930 -4540368.559 -8924655.117 10 0 60480 74700.00000 0 -22161092.613 -4437704.901 -11792089.814 10 0 60480 75600.00000 0 -20535790.672 -4458831.170 -14430032.948 10 0 60480 76500.00000 0 -18612313.423 -4645489.353 -16787139.849 10 0 60480 77400.00000 0 -16443791.936 -5030548.434 -18817541.980 10 0 60480 78300.00000 0 -14090720.854 -5636400.709 -20481743.732 10 0 60480 79200.00000 0 -11618580.767 -6473811.214 -21747392.898 10 0 60480 80100.00000 0 -9095266.866 -7541269.678 -22589909.836 10 0 60480 81000.00000 0 -6588431.494 -8824873.085 -22992963.309 10 0 60480 81900.00000 0 -4162851.492 -10298744.320 -22948784.124 10 0 60480 82800.00000 0 -1877929.980 -11925969.751 -22458310.948 10 0 60480 83700.00000 0 214563.854 -13660016.690 -21531165.945 10 0 60480 84600.00000 0 2072423.585 -15446571.474 -20185461.172 10 0 60480 85500.00000 0 3664523.694 -17225721.248 -18447439.869 10 0 60481 0.00000 0 4971865.083 -18934387.937 -16350960.180 10 0 60481 900.00000 0 5988106.610 -20508913.377 -13936830.367 10 0 60481 1800.00000 0 6719560.584 -21887685.033 -11252011.591 10 0 60481 2700.00000 0 7184656.695 -23013695.371 -8348700.210 10 0 60481 3600.00000 0 7412896.962 -23836925.353 -5283310.377 10 0 60481 4500.00000 0 7443348.192 -24316453.173 -2115375.918 10 0 60481 5400.00000 0 7322736.865 -24422199.865 1093606.748 10 0 60481 6300.00000 0 7103228.084 -24136238.802 4281371.986 10 0 60481 7200.00000 0 6839983.275 -23453614.488 7386091.228 10 0 60481 8100.00000 0 6588600.436 -22382636.632 10347568.730 10 0 60481 9000.00000 0 6402545.337 -20944637.431 13108403.761 10 0 60481 9900.00000 0 6330682.241 -19173202.350 15615096.953 10 0 60481 10800.00000 0 6415008.232 -17112906.552 17819079.929 10 0 60481 11700.00000 0 6688686.526 -14817609.422 19677648.952 10 0 60481 12600.00000 0 7174461.478 -12348377.843 21154785.308 10 0 60481 13500.00000 0 7883522.024 -9771123.898 22221847.401 10 0 60481 14400.00000 0 8814861.597 -7154054.259 22858121.932 10 0 60481 15300.00000 0 9955162.025 -4565036.087 23051224.096 10 0 60481 16200.00000 0 11279207.204 -2068987.583 22797339.408 10 0 60481 17100.00000 0 12750810.496 274599.822 22101302.497 10 0 60481 18000.00000 0 14324218.483 2413905.876 20976511.015 10 0 60481 18900.00000 0 15945933.897 4306700.373 19444675.679 10 0 60481 19800.00000 0 17556882.985 5921857.531 17535410.347 10 0 60481 20700.00000 0 19094837.897 7240403.442 15285668.959 10 0 60481 21600.00000 0 20496993.630 8256053.350 12739039.107 10 0 60481 22500.00000 0 21702592.140 8975216.633 9944904.799 10 0 60481 23400.00000 0 22655483.586 9416469.473 6957493.819 10 0 60481 24300.00000 0 23306516.817 9609517.626 3834827.551 10 0 60481 25200.00000 0 23615657.829 9593693.244 637593.422 10 0 60481 26100.00000 0 23553745.996 9416049.559 -2572037.936 10 0 60481 27000.00000 0 23103812.845 9129134.569 -5731627.354 10 0 60481 27900.00000 0 22261906.519 8788538.652 -8779689.211 10 0 60481 28800.00000 0 21037385.942 8450320.907 -11656896.207 10 0 60481 29700.00000 0 19452671.217 8168424.298 -14307242.390 10 0 60481 30600.00000 0 17542459.866 7992190.226 -16679140.875 10 0 60481 31500.00000 0 15352441.288 7964078.859 -18726434.088 10 0 60481 32400.00000 0 12937563.020 8117692.741 -20409296.333 10 0 60481 33300.00000 0 10359921.299 8476188.111 -21695010.874 10 0 60481 34200.00000 0 7686364.194 9051141.773 -22558606.345 10 0 60481 35100.00000 0 4985907.454 9841921.842 -22983340.342 10 0 60481 36000.00000 0 2327070.847 10835589.291 -22961021.162 10 0 60481 36900.00000 0 -224754.146 12007334.631 -22492161.884 10 0 60481 37800.00000 0 -2609796.057 13321431.499 -21585964.302 10 0 60481 38700.00000 0 -4776151.504 14732667.077 -20260133.481 10 0 60481 39600.00000 0 -6681696.922 16188189.210 -18540526.944 10 0 60481 40500.00000 0 -8295585.592 17629692.589 -16460645.641 10 0 60481 41400.00000 0 -9599269.014 18995852.094 -14060976.854 10 0 60481 42300.00000 0 -10587001.719 20224901.026 -11388202.038 10 0 60481 43200.00000 0 -11265810.278 21257245.844 -8494285.224 10 0 60481 44100.00000 0 -11654929.715 22038007.553 -5435459.894 10 0 60481 45000.00000 0 -11784732.885 22519382.917 -2271134.283 10 0 60481 45900.00000 0 -11695199.518 22662726.349 937263.356 10 0 60481 46800.00000 0 -11433990.922 22440265.090 4127476.925 10 0 60481 47700.00000 0 -11054212.657 21836375.754 7237628.696 10 0 60481 48600.00000 0 -10611960.427 20848368.763 10207416.153 10 0 60481 49500.00000 0 -10163753.224 19486747.849 12979276.356 10 0 60481 50400.00000 0 -9763962.213 17774933.704 15499495.542 10 0 60481 51300.00000 0 -9462343.727 15748463.148 17719242.955 10 0 60481 52200.00000 0 -9301780.075 13453696.869 19595509.605 10 0 60481 53100.00000 0 -9316323.014 10946088.997 21091934.532 10 0 60481 54000.00000 0 -9529621.900 8288089.708 22179503.445 10 0 60481 54900.00000 0 -9953802.534 5546766.967 22837106.996 10 0 60481 55800.00000 0 -10588843.890 2791244.973 23051948.484 10 0 60481 56700.00000 0 -11422479.389 90064.234 22819793.471 10 0 60481 57600.00000 0 -12430627.641 -2491428.596 22145056.525 10 0 60481 58500.00000 0 -13578335.669 -4893554.094 21040723.091 10 0 60481 59400.00000 0 -14821196.364 -7064535.205 19528107.397 10 0 60481 60300.00000 0 -16107182.110 -8962402.225 17636450.134 10 0 60481 61200.00000 0 -17378818.942 -10556489.103 15402362.629 10 0 60481 62100.00000 0 -18575611.074 -11828459.222 12869127.115 10 0 60481 63000.00000 0 -19636614.727 -12772818.172 10085865.567 10 0 60481 63900.00000 0 -20503053.315 -13396892.234 7106592.311 10 0 60481 64800.00000 0 -21120863.856 -13720273.678 3989168.217 10 0 60481 65700.00000 0 -21443066.738 -13773756.370 794176.475 10 0 60481 66600.00000 0 -21431857.985 -13597806.849 -2416258.017 10 0 60481 67500.00000 0 -21060334.556 -13240635.864 -5579682.254 10 0 60481 68400.00000 0 -20313778.472 -12755952.487 -8634537.369 10 0 60481 69300.00000 0 -19190444.188 -12200496.620 -11521364.768 10 0 60481 70200.00000 0 -17701814.637 -11631455.284 -14183971.690 10 0 60481 71100.00000 0 -15872313.992 -11103873.028 -16570532.603 10 0 60481 72000.00000 0 -13738488.252 -10668167.077 -18634604.155 10 0 60481 72900.00000 0 -11347687.374 -10367853.238 -20336033.402 10 0 60481 73800.00000 0 -8756303.697 -10237579.434 -21641741.369 10 0 60481 74700.00000 0 -6027640.133 -10301550.521 -22526366.621 10 0 60481 75600.00000 0 -3229497.002 -10572411.183 -22972756.566 10 0 60481 76500.00000 0 -431578.040 -11050634.184 -22972297.281 10 0 60481 77400.00000 0 2297176.507 -11724439.713 -22525075.903 10 0 60481 78300.00000 0 4891218.985 -12570249.057 -21639872.922 10 0 60481 79200.00000 0 7290876.785 -13553653.272 -20333984.977 10 0 60481 80100.00000 0 9444585.527 -14630855.785 -18632882.002 10 0 60481 81000.00000 0 11310781.064 -15750527.926 -16569705.721 10 0 60481 81900.00000 0 12859372.734 -16855999.032 -14184619.501 10 0 60481 82800.00000 0 14072737.883 -17887688.674 -11524022.449 10 0 60481 83700.00000 0 14946197.830 -18785678.451 -8639643.233 10 0 60481 84600.00000 0 15487957.156 -19492314.870 -5587531.463 10 0 60481 85500.00000 0 15718510.678 -19954733.629 -2426966.502 10 0 60482 0.00000 0 15669544.811 -20127198.946 780694.572 10 0 60482 900.00000 0 15382380.996 -19973159.463 3973208.983 10 0 60482 1800.00000 0 14906028.220 -19466934.061 7088652.590 10 0 60482 2700.00000 0 14294927.575 -18594956.996 10066618.882 10 0 60482 3600.00000 0 13606484.595 -17356529.677 12849385.180 10 0 60482 4500.00000 0 12898493.713 -15764047.543 15383025.424 10 0 60482 5400.00000 0 12226563.342 -13842692.174 17618448.201 10 0 60482 6300.00000 0 11641649.743 -11629600.973 19512340.595 10 0 60482 7200.00000 0 11187803.021 -9172548.362 21028000.345 10 0 60482 8100.00000 0 10900219.539 -6528192.443 22136041.040 10 0 60482 9000.00000 0 10803682.133 -3759958.867 22814957.518 10 0 60482 9900.00000 0 10911453.347 -935648.490 23051541.098 10 0 60482 10800.00000 0 11224668.122 1875133.366 22841137.030 10 0 60482 11700.00000 0 11732251.701 4603620.924 22187739.214 10 0 60482 12600.00000 0 12411366.772 7184496.960 21103920.075 10 0 60482 13500.00000 0 13228371.969 9558359.852 19610596.357 10 0 60482 14400.00000 0 14140252.528 11673947.291 17736634.425 10 0 60482 15300.00000 0 15096464.109 13490024.994 15518301.681 10 0 60482 16200.00000 0 16041113.285 14976862.324 12998573.541 10 0 60482 17100.00000 0 16915383.763 16117233.564 10226308.305 10 0 60482 18000.00000 0 17660106.606 16906903.133 7255305.040 10 0 60482 18900.00000 0 18218366.156 17354574.481 4143262.116 10 0 60482 19800.00000 0 18538031.340 17481304.863 950656.338 10 0 60482 20700.00000 0 18574104.659 17319410.764 -2260435.398 10 0 60482 21600.00000 0 18290788.534 16910910.401 -5427548.597 10 0 60482 22500.00000 0 17663180.303 16305569.483 -8489053.499 10 0 60482 23400.00000 0 16678522.784 15558633.461 -11385362.507 10 0 60482 24300.00000 0 15336956.085 14728342.905 -14060098.240 10 0 60482 25200.00000 0 13651737.534 13873337.980 -16461198.563 10 0 60482 26100.00000 0 11648919.204 13050062.617 -18541936.244 10 0 60482 27000.00000 0 9366495.555 12310278.948 -20261832.842 10 0 60482 27900.00000 0 6853056.148 11698797.632 -21587448.754 10 0 60482 28800.00000 0 4165999.311 11251520.342 -22493033.959 10 0 60482 29700.00000 0 1369381.017 10993877.204 -22961027.001 10 0 60482 30600.00000 0 -1468511.539 10939724.990 -22982392.868 10 0 60482 31500.00000 0 -4277760.749 11090752.245 -22556793.627 10 0 60482 32400.00000 0 -6989485.815 11436415.938 -21692589.009 10 0 60482 33300.00000 0 -9538465.800 11954411.757 -20406667.391 10 0 60482 34200.00000 0 -11865609.930 12611657.606 -18724110.869 10 0 60482 35100.00000 0 -13920173.132 13365748.259 -16677701.288 10 0 60482 36000.00000 0 -15661625.553 14166819.317 -14307277.071 10 0 60482 36900.00000 0 -17061099.349 14959741.371 -11658953.616 10 0 60482 37800.00000 0 -18102353.766 15686551.458 -8784222.609 10 0 60482 38700.00000 0 -18782219.786 16289018.911 -5738947.960 10 0 60482 39600.00000 0 -19110507.330 16711237.128 -2582278.152 10 0 60482 40500.00000 0 -19109380.631 16902131.732 624503.633 10 0 60482 41400.00000 0 -18812229.541 16817779.264 3819169.063 10 0 60482 42300.00000 0 -18262085.627 16423438.526 6939750.579 10 0 60482 43200.00000 0 -17509650.828 15695208.977 9925740.214 10 0 60482 44100.00000 0 -16611022.436 14621246.220 12719258.196 10 0 60482 45000.00000 0 -15625210.629 13202483.322 15266168.895 10 0 60482 45900.00000 0 -14611553.104 11452827.276 17517122.996 10 0 60482 46800.00000 0 -13627135.345 9398821.825 19428506.382 10 0 60482 47700.00000 0 -12724324.468 7078789.919 20963278.122 10 0 60482 48600.00000 0 -11948519.614 4541490.514 22091682.163 10 0 60482 49500.00000 0 -11336212.610 1844344.384 22791819.781 10 0 60482 50400.00000 0 -10913439.647 -948698.762 23050072.293 10 0 60482 51300.00000 0 -10694688.440 -3769564.824 22861366.274 10 0 60482 52200.00000 0 -10682306.488 -6548633.391 22229276.207 10 0 60482 53100.00000 0 -10866435.341 -9217383.880 21165962.324 10 0 60482 54000.00000 0 -11225473.975 -11711001.363 19691944.236 10 0 60482 54900.00000 0 -11727052.478 -13970835.051 17835713.850 10 0 60482 55800.00000 0 -12329475.860 -15946608.103 15633194.004 10 0 60482 56700.00000 0 -12983578.074 -17598287.355 13127052.168 10 0 60482 57600.00000 0 -13634908.907 -18897535.330 10365881.377 10 0 60482 58500.00000 0 -14226161.967 -19828683.901 7403263.416 10 0 60482 59400.00000 0 -14699741.514 -20389188.808 4296731.752 10 0 60482 60300.00000 0 -15000359.441 -20589545.820 1106654.076 10 0 60482 61200.00000 0 -15077551.987 -20452672.010 -2104943.753 10 0 60482 62100.00000 0 -14888008.761 -20012778.228 -5275589.036 10 0 60482 63000.00000 0 -14397614.243 -19313780.536 -8343584.617 10 0 60482 63900.00000 0 -13583113.941 -18407318.090 -11249217.543 10 0 60482 64800.00000 0 -12433333.221 -17350461.722 -13935929.533 10 0 60482 65700.00000 0 -10949895.752 -16203210.784 -16351425.539 10 0 60482 66600.00000 0 -9147409.861 -15025884.688 -18448697.977 10 0 60482 67500.00000 0 -7053113.647 -13876520.045 -20186946.158 10 0 60482 68400.00000 0 -4705992.715 -12808383.770 -21532372.680 10 0 60482 69300.00000 0 -2155406.678 -11867707.445 -22458841.242 10 0 60482 70200.00000 0 540718.714 -11091738.505 -22948383.245 10 0 60482 71100.00000 0 3318058.789 -10507190.150 -22991543.688 10 0 60482 72000.00000 0 6108326.448 -10129154.821 -22587560.064 10 0 60482 72900.00000 0 8841876.761 -9960526.257 -21744371.268 10 0 60482 73800.00000 0 11450371.583 -9991953.635 -20478456.809 10 0 60482 74700.00000 0 13869393.713 -10202328.752 -18814509.852 10 0 60482 75600.00000 0 16040902.333 -10559784.756 -16784950.804 10 0 60482 76500.00000 0 17915428.263 -11023163.387 -14429291.140 10 0 60482 77400.00000 0 19453918.408 -11543887.989 -11793360.110 10 0 60482 78300.00000 0 20629153.583 -12068162.551 -8928409.566 10 0 60482 79200.00000 0 21426681.790 -12539403.311 -5890114.508 10 0 60482 80100.00000 0 21845229.275 -12900799.791 -2737489.050 10 0 60482 81000.00000 0 21896573.653 -13097896.743 468260.894 10 0 60482 81900.00000 0 21604885.875 -13081087.723 3664925.731 10 0 60482 82800.00000 0 21005569.979 -12807914.877 6790497.806 10 0 60482 83700.00000 0 20143650.571 -12245077.762 9784371.102 10 0 60482 84600.00000 0 19071776.634 -11370066.397 12588511.838 10 0 60482 85500.00000 0 17847926.158 -10172349.588 15148577.497 10 0 60483 0.00000 0 16532908.332 -8654068.338 17414962.920 10 0 60483 900.00000 0 15187767.367 -6830203.842 19343754.998 10 0 60483 1800.00000 0 13871198.206 -4728214.293 20897575.258 10 0 60483 2700.00000 0 12637079.523 -2387151.951 22046298.921 10 0 60483 3600.00000 0 11532228.280 143702.111 22767634.205 10 0 60483 4500.00000 0 10594468.394 2806630.952 23047552.537 10 0 60483 5400.00000 0 9851093.705 5537629.413 22880561.562 10 0 60483 6300.00000 0 9317788.985 8268818.978 22269815.758 10 0 60483 7200.00000 0 8998053.830 10931031.199 21227062.248 10 0 60483 8100.00000 0 8883153.450 13456453.974 19772422.327 10 0 60483 9000.00000 0 8952598.587 15781232.017 17934012.000 10 0 60483 9900.00000 0 9175134.763 17847914.373 15747407.892 10 0 60483 10800.00000 0 9510199.760 19607647.709 13254967.669 10 0 60483 11700.00000 0 9909788.439 21022024.272 10505017.073 10 0 60483 12600.00000 0 10320646.658 22064507.283 7550918.408 10 0 60483 13500.00000 0 10686701.822 22721373.964 4450037.903 10 0 60483 14400.00000 0 10951627.176 22992136.335 1262631.677 10 0 60483 15300.00000 0 11061430.866 22889421.800 -1949327.955 10 0 60483 16200.00000 0 10966959.324 22438318.336 -5123362.609 10 0 60483 17100.00000 0 10626207.800 21675211.793 -8197710.178 10 0 60483 18000.00000 0 10006338.846 20646164.484 -11112534.669 10 0 60483 18900.00000 0 9085321.783 19404903.812 -13811099.043 10 0 60483 19800.00000 0 7853122.240 18010506.266 -16240877.276 10 0 60483 20700.00000 0 6312390.029 16524875.134 -18354583.181 10 0 60483 21600.00000 0 4478614.890 15010118.888 -20111095.361 10 0 60483 22500.00000 0 2379742.339 13525941.220 -21476259.996 10 0 60483 23400.00000 0 55264.702 12127153.015 -22423555.710 10 0 60483 24300.00000 0 -2445175.399 10861411.031 -22934607.788 10 0 60483 25200.00000 0 -5063611.326 9767278.175 -22999542.047 10 0 60483 26100.00000 0 -7735932.677 8872686.412 -22617171.940 10 0 60483 27000.00000 0 -10394328.911 8193866.079 -21795015.736 10 0 60483 27900.00000 0 -12969894.914 7734785.565 -20549143.915 10 0 60483 28800.00000 0 -15395290.232 7487123.703 -18903860.160 10 0 60483 29700.00000 0 -17607341.676 7430774.710 -16891222.519 10 0 60483 30600.00000 0 -19549481.374 7534863.126 -14550414.266 10 0 60483 31500.00000 0 -21173919.252 7759224.714 -11926976.997 10 0 60483 32400.00000 0 -22443460.129 8056289.773 -9071921.026 10 0 60483 33300.00000 0 -23332890.482 8373288.392 -6040730.597 10 0 60483 34200.00000 0 -23829877.958 8654683.733 -2892283.511 10 0 60483 35100.00000 0 -23935347.217 8844729.944 312293.633 10 0 60483 36000.00000 0 -23663317.535 8890046.148 3510812.117 10 0 60483 36900.00000 0 -23040210.203 8742097.477 6641226.447 10 0 60483 37800.00000 0 -22103655.850 8359478.156 9642834.918 10 0 60483 38700.00000 0 -20900852.613 7709900.127 12457452.194 10 0 60483 39600.00000 0 -19486544.669 6771803.209 15030531.402 10 0 60483 40500.00000 0 -17920706.224 5535518.707 17312214.450 10 0 60483 41400.00000 0 -16266027.984 4003937.122 19258290.884 10 0 60483 42300.00000 0 -14585311.077 2192651.228 20831047.457 10 0 60483 43200.00000 0 -12938876.841 129567.587 21999992.790 10 0 60483 44100.00000 0 -11382099.968 -2145998.566 22742443.905 10 0 60483 45000.00000 0 -9963167.183 -4584708.746 23043963.897 10 0 60483 45900.00000 0 -8721154.128 -7129010.957 22898642.715 10 0 60483 46800.00000 0 -7684499.922 -9715300.239 22309215.704 10 0 60483 47700.00000 0 -6869942.453 -12276341.895 21287017.416 10 0 60483 48600.00000 0 -6281958.437 -14743858.351 19851770.981 10 0 60483 49500.00000 0 -5912731.428 -17051173.480 18031216.300 10 0 60483 50400.00000 0 -5742649.088 -19135805.433 15860583.191 10 0 60483 51300.00000 0 -5741308.992 -20941900.709 13381918.567 10 0 60483 52200.00000 0 -5868990.836 -22422408.295 10643279.575 10 0 60483 53100.00000 0 -6078533.258 -23540903.001 7697807.416 10 0 60483 54000.00000 0 -6317536.121 -24272981.431 4602699.159 10 0 60483 54900.00000 0 -6530795.037 -24607171.568 1418097.167 10 0 60483 55800.00000 0 -6662864.710 -24545317.258 -1794082.234 10 0 60483 56700.00000 0 -6660641.820 -24102420.894 -4971357.652 10 0 60483 57600.00000 0 -6475856.983 -23305950.567 -8051904.931 10 0 60483 58500.00000 0 -6067368.936 -22194640.682 -10975768.147 10 0 60483 59400.00000 0 -5403162.345 -20816836.640 -13686034.750 10 0 60483 60300.00000 0 -4461963.118 -19228453.588 -16129951.059 10 0 60483 61200.00000 0 -3234401.444 -17490635.659 -18259955.557 10 0 60483 62100.00000 0 -1723671.975 -15667214.760 -20034609.265 10 0 60483 63000.00000 0 54337.980 -13822076.258 -21419404.789 10 0 60483 63900.00000 0 2071458.775 -12016542.681 -22387438.157 10 0 60483 64800.00000 0 4288170.995 -10306885.441 -22919930.557 10 0 60483 65700.00000 0 6655021.957 -8742068.835 -23006590.164 10 0 60483 66600.00000 0 9114467.438 -7361820.522 -22645807.426 10 0 60483 67500.00000 0 11603062.154 -6195108.565 -21844680.531 10 0 60483 68400.00000 0 14053907.900 -5259087.808 -20618870.998 10 0 60483 69300.00000 0 16399257.511 -4558558.464 -18992292.633 10 0 60483 70200.00000 0 18573166.364 -4085958.123 -16996640.244 10 0 60483 71100.00000 0 20514081.165 -3821885.910 -14670767.541 10 0 60483 72000.00000 0 22167258.402 -3736135.192 -12059926.584 10 0 60483 72900.00000 0 23486912.031 -3789189.803 -9214883.770 10 0 60483 73800.00000 0 24438001.306 -3934119.403 -6190929.734 10 0 60483 74700.00000 0 24997584.734 -4118792.809 -3046802.701 10 0 60483 75600.00000 0 25155684.400 -4288314.914 156453.606 10 0 60483 76500.00000 0 24915625.384 -4387583.528 3356675.072 10 0 60483 77400.00000 0 24293837.021 -4363857.605 6491782.119 10 0 60483 78300.00000 0 23319125.226 -4169228.005 9500980.998 10 0 60483 79200.00000 0 22031447.180 -3762886.287 12325938.244 10 0 60483 80100.00000 0 20480240.269 -3113095.605 14911905.719 10 0 60483 81000.00000 0 18722375.596 -2198780.484 17208774.931 10 0 60483 81900.00000 0 16819821.714 -1010668.235 19172040.800 10 0 60483 82800.00000 0 14837115.969 448066.467 20763656.967 10 0 60483 83700.00000 0 12838748.537 2161681.641 21952766.900 10 0 60483 84600.00000 0 10886567.477 4102278.811 22716297.438 10 0 60483 85500.00000 0 9037312.101 6230728.737 23039403.916 99